Miscellaneous Local Product
Issued by NWS North Platte, NE

Home | Current Version | Previous Version | Graphics & Text | Print | Product List | Glossary On
Versions: 1 2 3 4 5 6 7 8 9 10 11 12 13 14 15 16 17 18 19 20 21 22 23 24 25 26 27 28 29 30 31 32 33 34 35 36 37 38 39 40 41 42 43 44 45 46 47 48 49 50
823
AXUS43 KLBF 210010
MISLBF


WESTERN AND NORTH CENTRAL NEBRASKA HOURLY WEATHER ROUNDUP
NATIONAL WEATHER SERVICE NORTH PLATTE NE
600 PM CST MON FEB 20 2017

NOTE: "FAIR" INDICATES FEW OR NO CLOUDS BELOW 12,000 FEET WITH NO
SIGNIFICANT WEATHER AND/OR OBSTRUCTIONS TO VISIBILITY.

NOTE: STATIONS NOT REPORTING VARIABLES SUCH AS SKY/WEATHER OR
PRESSURE ARE PROVIDED BY RAWS AND APRS NETWORKS AND ARE NOT UNDER
NATIONAL WEATHER SERVICE QUALITY CONTROL.

...OBSERVATIONS IN AND NEAR THE EASTERN PANHANDLE OF NEBRASKA...

CITY           SKY/WX    TMP DP  RH WIND       PRES   REMARKS
PINE RIDGE     CLEAR     57  24  28 CALM      29.85S
CHADRON        CLEAR     60  28  29 W14       29.85S
ALLIANCE       CLEAR     58  24  27 W14       29.90R
SIDNEY         CLEAR     58  21  24 NW8       29.95R
$$

...OBSERVATIONS IN NORTHERN NEBRASKA AND FAR SOUTHERN SOUTH DAKOTA...

CITY           SKY/WX    TMP DP  RH WIND       PRES   REMARKS
WINNER         FAIR      57  28  33 NW8       29.85R
VALENTINE      CLEAR     57  23  26 W9        29.87S
THEDFORD       CLEAR     58  28  30 NW3       29.92R
AINSWORTH      CLEAR     56  28  34 W6        29.89R
O`NEILL        CLEAR     56  36  47 W8        29.90R
ORD            CLEAR     57  31  37 NW9       29.91R
BROKEN BOW     CLEAR     58  28  32 N9        29.92R
VALENTINE NWR    N/A     59  27  29 NW12G20     N/A
BUTTE            N/A     56  34  44 NW10        N/A
HALSEY           N/A     61  26  26 NW7G18      N/A
CHAMBERS         N/A     55  35  46 W3          N/A
EWING            N/A     54  39  57 NW5         N/A
$$

...OBSERVATIONS IN SOUTHWEST NEBRASKA AND FAR NORTHEAST COLORADO...

CITY           SKY/WX    TMP DP  RH WIND       PRES   REMARKS
HOLYOKE        FAIR      61  14  16 N5        29.96S
IMPERIAL       CLEAR     58  19  22 N6        29.96S
OGALLALA       CLEAR     60  14  16 NW5       29.94S
NORTH PLATTE   CLEAR     60  21  22 NW8       29.93R
MCCOOK         CLEAR     60  26  27 NW10      29.95R
LEXINGTON      CLEAR     58  31  35 NW7       29.94R
STAPLETON        N/A     55  27  33 CALM        N/A
GOTHENBURG       N/A     60  26  27 NW6         N/A
CALLAWAY         N/A     57  30  35 N7          N/A
$$

...OBSERVATIONS IN CENTRAL LINCOLN COUNTY AREA...

CITY           SKY/WX    TMP DP  RH WIND       PRES   REMARKS
N.P. AIRPORT   CLEAR     60  21  22 NW8       29.93R
N.P. DOWNTOWN    N/A     60  25  26 CALM        N/A
N.P. SOUTHEAST   N/A     61  23  23 CALM        N/A
N.P. HILLCREST   N/A     60  23  24 NW5         N/A
$$

...SOME OBSERVATIONS FROM AROUND THE REGION...

CITY           SKY/WX    TMP DP  RH WIND       PRES   REMARKS
LARAMIE        MOCLDY    45  20  36 S14       30.05R
CHEYENNE       CLEAR     52  17  25 SW16G23   30.01R
DENVER         PTCLDY    59  14  17 NW15      30.00R
AKRON          CLEAR     59  14  17 W7        29.99R
SCOTTSBLUFF    CLEAR     61  22  22 W10G21    29.92R
RAPID CITY     CLEAR     61  19  19 SW8       29.79F
BISMARCK       CLEAR     50  34  54 W3        29.74F
PIERRE         CLEAR     53  30  41 NW9       29.80S
SIOUX FALLS    PTCLDY    50  43  77 NW13      29.80R
OMAHA          MOCLDY    55  46  71 NW8       29.85R
GRAND ISLAND   CLEAR     57  37  47 N13       29.91R
KANSAS CITY    CLOUDY    62  51  67 S9        29.85S
WICHITA        MOCLDY    59  53  80 S9        29.88R
OKLAHOMA CITY  PTCLDY    63  52  67 S7        29.89R
DALLAS         PTCLDY    66  55  67 S12       29.91R
AMARILLO       CLEAR     64  11  12 N15       30.04R
DODGE CITY     CLEAR     62  26  25 N12       29.96R
HAYS           CLEAR     61  36  39 N13       29.94R
GOODLAND       CLEAR     59  11  15 N9        29.99R
$$




USA.gov is the U.S. government's official web portal to all federal, state and local government web resources and services.